Tracking 25648 objects as of 16-May-2022
HD Live streaming from Space Station
objects crossing your sky now

COSMOS 2251 DEB

Track COSMOS 2251 DEB now!
10-day predictions


NORAD ID: 35660
Int'l Code: 1993-036APB
Perigee: 739.2 km
Apogee: 767.4 km
Inclination: 74.0 °
Period: 99.7 minutes
Semi major axis: 7124 km
RCS: 0.0108 m2 (small)
Launch date: June 16, 1993
Source: Commonwealth of Independent States (former USSR) (CIS)
Launch site: PLESETSK MISSILE AND SPACE COMPLEX (PKMTR)

Note: This is SATELLITE DEBRIS
aabbcc
Your satellite tracking list
Your tracking list is empty




NASA's NSSDC Master Catalog

Two Line Element Set (TLE):
1 35660U 93036APB 22135.47007123  .00000968  00000-0  29196-3 0  9991
2 35660  74.0445  52.9323 0019779 167.1842 312.3124 14.43735567469709
Source of the keplerian elements: AFSPC